カタログに戻る

COSMOS 2251 DEB

運用中LEO
NORAD 37985·DEBRIS·🇷🇺 Russia

打ち上げ Jun 16, 1993 から Plesetsk Cosmodrome

Loading…

次のパス (今後24時間)

TLE

経年Source: Space-Track

元期: Sep 12, 2026, 08:45 UTC

1 37985U 93036BQL 26255.36492865  .00000063  00000-0  31013-4 0  9997
2 37985  74.0243 123.4836 0021585 186.0123 174.0774 14.35550669688436

AllMySatでCOSMOS 2251 DEBをリアルタイム追跡

Download on the App Store